Theta_e
357 358 357 357 358 356 356 357 357 359 360 359 358 358 359 354 353 356 356 355 350 351 352 350 348 347 347 349 349 350 354 352 353 354 355 355 356 358 360 360 359 359 359 359 359 359 359 359 359 358 358 357 356 357 357 357 357 357 357 356 356 355 355 354 353 354 354 353 354 354 354 354 354 354 355 355 355 355 354 354 355 354 355 354 353
356 356 356 356 358 356 354 357 356 357 356 354 359 361 356 356 358 360 356 356 349 349 351 348 347 347 348 348 348 351 353 352 352 353 355 355 356 360 361 360 359 359 359 358 359 359 358 358 358 359 358 357 357 357 357 357 356 356 356 356 355 355 354 354 354 354 354 354 354 354 355 355 354 355 355 354 355 354 354 354 354 354 354 354 353
356 356 356 357 357 358 355 354 353 358 357 357 362 361 359 359 359 358 358 356 352 354 351 346 346 348 349 348 347 351 353 353 353 353 354 354 356 357 360 362 360 359 359 359 359 359 359 358 358 358 357 357 357 357 357 357 356 355 356 355 355 355 354 355 355 355 354 354 355 355 355 355 354 355 355 354 355 355 354 354 354 353 353 353 353
360 358 357 356 358 357 356 354 354 361 360 359 361 361 360 361 363 365 363 358 358 357 356 346 345 346 347 348 349 351 353 353 353 353 353 354 355 356 356 359 362 361 360 360 359 359 359 359 358 358 357 357 357 357 357 356 355 356 356 356 356 355 355 355 355 355 356 355 355 355 355 355 354 354 355 354 354 354 353 353 353 353 353 353 353
361 359 362 357 356 357 359 361 361 360 361 362 363 362 360 362 360 362 360 356 356 353 359 350 343 344 346 347 346 347 352 354 353 353 353 354 354 355 356 358 358 362 362 361 360 360 360 359 359 359 358 358 357 357 357 357 357 356 356 356 356 356 356 356 355 356 356 356 355 355 355 354 354 354 354 354 353 354 353 353 353 352 352 352 349
364 359 358 357 359 358 357 359 360 362 364 364 359 358 357 358 358 355 360 357 354 353 351 347 344 345 344 347 348 349 350 353 354 353 353 353 355 355 356 356 357 357 360 362 362 361 360 360 361 360 359 359 359 358 358 358 358 357 357 357 356 357 357 356 356 356 356 356 355 355 355 354 354 354 353 353 353 353 353 352 352 351 352 350 347
366 362 358 358 358 358 358 359 363 363 360 361 360 358 358 356 360 355 355 353 353 357 357 346 341 343 345 345 345 346 349 349 352 354 354 354 355 355 355 356 357 357 360 358 361 362 361 361 361 361 360 360 360 359 360 359 359 358 358 357 357 357 357 358 357 356 356 356 355 355 355 354 354 354 353 353 352 352 352 351 351 351 351 347 346
364 362 359 358 356 357 359 361 363 362 359 359 362 357 356 359 359 358 353 357 359 352 354 352 346 342 343 343 346 353 349 346 349 354 355 355 354 355 355 356 357 357 361 357 357 360 362 362 362 361 360 360 360 360 360 360 359 359 358 358 358 358 358 357 357 356 356 356 356 355 354 354 354 354 353 353 353 352 351 350 350 350 348 346 346
364 364 362 359 358 358 360 362 364 361 360 359 358 362 357 361 361 363 360 356 355 353 349 350 350 349 344 343 348 353 349 350 345 350 355 354 354 356 356 356 358 363 359 357 357 357 361 363 362 362 362 361 361 361 360 360 359 358 358 358 358 358 358 358 358 357 357 357 356 355 355 354 354 353 353 353 353 352 350 350 349 350 348 343 344
363 365 362 360 358 359 362 363 362 361 359 360 359 358 357 360 358 361 360 356 356 351 348 350 352 351 341 340 343 345 348 350 346 358 348 351 353 355 356 358 358 359 358 356 356 357 358 361 362 362 362 361 361 361 360 361 360 359 358 358 358 358 357 357 357 357 357 356 356 355 355 355 354 353 353 353 352 351 350 348 349 350 346 344 347
366 365 361 361 358 359 362 362 362 360 360 358 358 362 364 359 358 358 362 359 357 355 352 353 355 341 340 344 347 346 345 347 354 352 344 345 352 356 357 355 357 359 357 357 357 357 355 358 358 359 359 361 362 362 362 361 361 360 359 359 358 358 358 357 357 356 357 356 356 355 355 354 353 353 353 352 351 350 349 349 349 350 346 345 345
364 364 363 361 360 361 361 363 362 360 357 355 354 356 358 358 357 358 356 358 360 359 356 353 351 346 350 343 347 348 348 352 351 349 346 339 349 352 351 353 354 356 356 357 359 357 354 356 360 357 357 360 362 362 362 362 362 361 360 359 358 358 358 358 357 357 357 357 356 355 355 355 354 353 352 352 351 350 350 348 350 350 347 345 345
365 365 364 369 363 361 359 361 362 361 357 355 357 358 360 359 359 360 358 354 356 357 355 353 345 340 343 345 343 346 356 358 350 345 345 342 344 345 344 346 346 354 354 356 358 357 355 354 356 356 356 356 360 363 362 362 361 361 361 361 360 359 359 359 358 358 357 357 355 355 355 355 353 352 351 351 351 351 350 349 350 350 346 344 345
368 367 365 362 360 358 357 362 362 359 358 361 359 364 359 357 358 355 358 355 354 355 358 351 342 338 335 339 338 343 348 345 344 345 341 338 340 342 338 337 341 348 352 355 356 357 356 355 356 356 356 356 355 358 360 360 360 362 362 362 361 360 359 358 358 358 357 357 356 356 355 355 355 355 354 352 350 350 350 349 350 350 348 345 345
368 368 365 362 359 358 357 359 363 363 359 360 360 357 355 355 355 354 354 357 360 359 355 351 344 344 346 338 333 331 340 344 347 343 340 338 338 340 341 338 339 339 343 348 352 354 355 356 357 356 357 356 353 355 357 361 359 363 362 361 361 360 360 359 358 358 358 358 357 356 355 355 355 355 353 352 351 350 351 350 350 351 348 345 345
367 367 366 364 361 359 361 358 361 363 361 358 357 355 355 355 355 357 356 349 349 351 358 355 350 342 331 334 333 333 329 331 336 341 339 339 339 337 341 340 339 340 342 339 345 347 348 350 355 356 357 357 355 355 356 356 361 364 365 363 361 360 360 360 359 359 359 358 357 356 356 357 356 355 354 353 352 351 350 350 350 350 350 347 345
364 364 365 364 365 364 364 363 364 364 361 358 357 357 357 355 355 356 355 352 347 350 355 356 351 354 350 337 335 331 332 333 335 334 344 339 338 337 342 339 339 341 345 343 344 345 344 346 349 349 352 353 355 356 356 356 358 363 362 364 362 359 360 360 359 360 359 359 358 357 357 357 357 356 355 352 353 353 351 351 351 351 350 347 346
362 362 364 364 365 365 361 365 364 364 363 362 361 359 357 355 356 358 357 357 351 349 347 355 357 360 350 347 340 333 332 335 332 325 342 350 339 334 341 341 342 344 347 344 344 344 348 347 348 347 350 346 348 354 357 357 360 360 359 359 363 361 360 359 359 359 359 360 359 358 358 358 358 357 356 353 352 353 353 352 351 350 350 349 346
360 361 361 363 365 364 361 362 366 364 368 361 360 357 358 357 359 358 356 360 355 347 347 348 352 355 353 349 350 350 343 336 329 337 328 333 348 338 335 340 342 343 344 341 342 342 348 349 348 350 349 348 348 347 355 357 362 362 364 363 362 362 360 357 357 359 359 359 359 359 358 357 358 358 357 355 352 352 353 352 351 350 350 350 347
358 359 362 362 363 363 360 363 364 365 364 359 357 356 358 360 361 359 360 360 358 351 350 349 347 348 357 349 351 349 339 344 341 337 332 331 330 342 340 338 340 341 344 342 341 343 344 349 349 350 349 351 351 349 350 356 358 359 362 361 363 362 360 357 357 358 359 359 359 359 359 359 358 358 358 357 356 353 352 353 352 351 351 350 349
359 358 361 362 364 362 363 362 361 360 365 359 359 358 355 356 361 360 360 359 361 357 352 350 353 350 348 350 349 345 340 342 342 342 340 332 332 335 336 339 339 339 341 341 341 344 346 348 349 351 352 352 352 350 351 352 355 357 361 362 363 363 361 357 357 359 360 359 358 358 358 359 359 359 359 359 358 355 353 352 353 353 352 352 350
361 357 360 361 363 363 363 361 362 362 362 359 359 356 356 361 361 361 362 362 361 360 356 358 358 355 354 350 349 346 343 344 338 334 339 337 332 333 335 332 331 336 343 336 341 343 345 345 349 352 350 350 351 349 351 352 352 354 357 364 364 363 362 358 357 360 360 359 358 358 357 358 359 360 360 360 360 359 355 354 353 353 353 352 352
357 360 358 362 361 363 363 362 362 363 362 357 356 355 361 362 362 363 362 360 363 361 365 363 359 360 355 351 348 347 341 341 339 342 338 336 331 334 337 334 335 331 335 339 342 343 343 343 344 348 349 350 349 351 349 350 357 355 356 359 360 361 360 360 358 359 360 356 358 359 359 357 358 359 360 360 360 361 359 356 353 353 354 353 352
355 356 357 360 361 361 362 361 362 360 360 359 361 357 360 361 361 362 361 360 362 363 360 358 357 358 358 359 354 354 350 344 347 343 345 341 339 335 336 338 340 337 346 341 345 340 342 342 345 344 347 350 350 351 351 351 355 361 358 358 357 358 359 360 359 358 355 355 353 356 358 359 358 358 359 361 361 361 361 360 357 355 355 354 353
353 354 355 355 360 359 358 358 359 361 360 357 359 361 361 358 360 360 361 361 363 359 358 360 360 355 355 357 354 351 349 346 345 346 345 348 338 335 338 339 336 338 337 339 337 343 341 341 343 342 344 348 351 352 351 352 350 357 362 359 357 355 356 357 357 355 353 352 352 353 353 354 355 354 353 354 356 358 360 361 360 358 356 354 353
352 353 353 355 359 359 359 358 362 359 362 358 357 359 365 362 359 359 359 362 363 362 360 360 359 359 358 355 354 354 351 350 345 345 341 343 339 336 335 344 339 338 345 341 342 338 338 342 341 340 344 346 351 351 352 352 352 358 362 356 354 354 354 354 355 354 352 352 351 351 352 353 354 354 352 352 353 356 357 358 359 360 359 356 355
354 354 355 354 358 358 359 357 362 360 362 361 363 359 362 363 366 360 360 361 362 362 359 361 360 359 358 357 358 357 353 352 350 342 343 344 341 341 343 335 336 339 342 344 344 339 338 343 342 340 347 349 350 351 352 352 354 358 362 358 352 352 351 351 353 352 351 351 350 350 350 351 351 351 351 352 352 354 355 354 356 357 358 357 356
352 355 355 354 356 358 360 358 359 363 361 361 361 361 360 358 358 360 357 364 358 359 360 361 359 360 358 358 359 357 355 356 358 356 354 348 350 349 346 339 330 326 338 338 341 341 344 339 344 348 346 348 354 356 355 354 349 356 364 356 352 352 351 350 350 350 349 347 348 349 349 350 350 350 352 353 354 354 355 353 352 353 354 355 354
353 355 352 355 355 358 358 358 359 362 362 361 361 360 361 360 359 357 357 359 358 357 357 356 357 357 357 360 360 358 357 358 358 358 358 356 356 355 349 345 337 333 332 333 335 341 344 348 343 346 352 351 348 353 354 353 354 355 355 356 352 351 351 348 348 347 347 347 346 346 347 348 349 350 351 351 352 354 355 353 351 350 351 351 351
354 353 353 350 357 363 357 358 359 361 362 361 361 361 361 358 360 359 359 358 359 359 359 356 354 355 357 355 358 359 360 359 358 355 362 355 354 354 352 353 347 337 336 334 332 341 341 346 343 346 350 351 355 351 353 350 354 354 353 354 354 352 350 347 346 345 345 345 344 343 344 345 345 346 347 348 349 350 351 351 351 351 351 350 349
354 351 353 351 353 359 357 357 359 360 360 361 361 360 361 358 358 359 360 359 357 356 358 356 357 357 356 355 355 356 358 356 356 358 361 357 354 352 352 352 347 343 342 336 332 337 348 343 346 351 351 356 355 354 356 354 355 356 352 351 352 353 351 350 347 345 344 343 342 341 341 342 341 341 343 344 345 346 346 347 348 349 350 349 350
348 350 351 353 351 356 356 357 358 359 359 360 362 360 360 358 357 359 359 359 358 356 357 358 358 355 353 353 355 358 362 359 356 356 361 356 356 354 354 354 350 348 345 340 336 338 344 347 348 351 353 350 352 350 350 354 358 358 353 351 351 353 353 352 350 346 344 342 342 341 340 339 337 338 340 342 343 344 346 347 348 349 348 347 347
345 343 351 352 351 352 356 356 358 357 356 358 360 360 359 358 357 357 356 359 357 355 357 357 357 355 355 352 351 356 358 357 357 358 357 359 357 355 355 353 352 353 348 344 340 341 345 349 352 352 355 354 351 352 350 351 353 355 357 352 351 350 351 352 353 348 345 342 341 340 339 338 337 337 339 341 342 344 345 345 345 345 343 343 344
346 343 348 353 353 352 353 354 354 356 357 356 359 359 358 357 357 359 357 357 356 355 356 355 357 359 357 353 353 355 357 355 357 358 357 354 356 355 355 357 355 355 352 347 344 342 343 347 350 355 355 357 352 352 350 350 351 352 353 353 356 354 354 354 353 355 348 346 344 342 341 339 337 337 338 339 340 341 342 342 342 339 339 341 339
349 346 343 350 354 353 352 353 352 353 355 356 357 358 358 357 356 357 358 358 356 355 356 356 356 357 356 356 355 356 360 355 355 355 356 353 353 353 354 355 354 354 356 352 348 346 346 348 351 353 351 351 350 351 352 354 354 355 353 353 355 358 359 357 357 358 351 347 345 343 341 339 338 337 336 336 337 337 337 337 335 334 335 333 331
348 349 345 344 351 354 353 353 352 352 354 356 356 356 357 357 357 356 356 355 357 356 356 357 357 357 356 354 354 356 355 354 355 354 354 354 353 353 354 356 354 355 355 357 353 350 349 347 348 352 353 352 353 354 356 358 357 357 357 356 356 357 357 359 358 357 354 347 344 341 341 340 339 337 335 334 333 332 332 331 331 330 329 330 330
347 349 349 345 345 352 354 354 354 353 354 355 355 355 357 358 358 357 356 355 355 356 357 357 363 357 356 355 354 353 353 352 352 354 354 352 353 352 352 352 355 356 358 358 358 355 352 350 350 351 354 354 355 357 358 357 358 358 357 357 358 358 357 359 361 362 353 347 345 343 341 340 340 339 338 337 336 334 333 333 332 330 330 328 326
346 348 349 348 345 348 353 354 356 355 355 356 355 355 355 357 358 358 357 357 356 354 356 357 359 358 357 356 355 354 352 352 352 353 353 353 353 353 352 352 353 353 353 352 352 350 349 348 347 347 349 353 353 355 357 358 357 357 355 355 355 356 356 356 358 362 365 362 361 361 353 349 347 343 342 340 336 334 333 333 334 332 330 327 324
346 346 347 349 349 347 349 353 356 357 355 355 355 355 354 356 357 357 357 356 357 356 355 355 358 359 358 357 356 355 353 352 352 352 353 353 353 353 354 353 353 355 354 353 353 352 351 349 350 352 352 354 354 354 356 356 357 356 354 354 350 352 354 353 354 360 364 362 357 352 352 351 347 346 338 333 334 335 334 333 333 332 330 328 325
346 346 347 348 350 350 349 350 353 357 357 355 355 355 354 354 356 356 356 356 356 356 356 356 356 357 358 358 357 356 355 354 353 353 353 352 355 354 355 356 356 354 353 352 353 353 352 352 351 351 351 352 351 355 357 353 352 351 353 352 351 347 351 354 356 354 355 355 355 356 352 350 349 349 343 343 343 341 337 337 341 342 339 332 328
347 346 347 348 350 352 352 351 352 354 357 356 356 355 354 353 354 355 355 356 356 355 355 355 356 356 357 357 357 356 357 365 362 360 359 360 355 354 354 355 355 355 354 354 353 352 352 352 353 353 351 352 352 351 351 350 349 350 351 351 350 346 348 348 350 354 355 352 352 353 353 354 353 353 353 352 353 350 350 345 346 346 341 333 329
346 347 346 348 349 351 353 354 353 354 355 357 353 344 347 355 354 355 355 355 355 356 355 354 354 355 356 357 358 368 365 363 355 353 351 356 362 358 355 356 355 354 354 353 353 353 352 351 351 352 351 351 352 352 352 353 354 351 349 345 343 345 346 347 345 347 354 352 350 350 352 354 353 352 352 351 353 353 352 352 352 343 332 328 329
348 348 347 346 348 350 352 355 355 355 355 356 343 336 338 344 354 355 354 353 354 354 355 354 353 354 355 355 355 363 370 370 359 349 348 346 348 352 355 362 364 357 353 353 353 354 353 353 353 352 352 351 352 353 352 353 352 348 346 343 344 345 344 341 341 344 351 351 346 346 348 351 350 349 350 350 351 352 353 352 338 332 329 329 329
350 350 349 346 348 350 351 354 356 356 356 348 336 334 336 337 346 356 354 353 354 353 353 354 354 354 354 355 356 356 354 355 357 356 350 346 343 345 346 348 354 359 359 358 355 354 354 353 352 353 352 352 352 351 352 353 351 349 344 344 344 344 345 340 338 341 349 352 346 343 346 348 349 349 347 349 351 352 353 342 333 328 328 328 328
351 350 349 348 347 351 352 352 355 357 357 343 333 332 333 334 336 350 355 352 353 353 352 353 354 354 353 353 353 354 355 365 365 358 354 352 344 340 342 345 348 346 340 342 348 358 356 353 353 351 352 352 351 352 355 352 351 346 345 344 345 343 342 341 342 344 349 351 346 343 343 347 347 344 345 349 350 350 348 339 330 330 329 329 327
351 351 351 350 348 350 353 353 354 357 358 343 330 328 330 331 333 341 355 353 351 352 353 353 353 353 353 352 351 351 350 352 353 357 356 353 351 350 347 346 347 352 348 340 337 337 344 349 346 345 346 346 346 347 350 350 351 350 346 345 345 343 342 345 346 347 351 353 347 342 340 345 347 345 342 346 348 346 345 335 328 330 329 327 326
352 351 351 350 350 350 352 354 354 355 358 337 327 325 326 327 331 337 355 355 352 350 351 353 354 353 353 354 352 351 350 349 351 354 355 354 352 351 349 348 349 350 352 353 353 352 349 347 346 347 348 347 348 348 349 350 351 352 352 349 347 347 346 345 344 347 350 352 348 344 338 342 343 341 342 343 345 340 338 336 330 331 329 326 327
352 353 353 352 351 351 351 354 354 353 357 331 326 324 324 325 329 345 354 355 353 352 350 351 353 354 353 354 353 352 351 350 353 349 356 356 354 353 352 351 351 352 354 356 345 347 356 355 352 350 350 351 345 351 349 352 351 351 352 350 347 345 342 341 344 347 344 348 347 342 337 338 342 339 338 341 339 334 336 341 333 331 328 327 327
350 352 352 352 352 352 351 351 353 354 355 334 325 322 322 323 328 348 353 355 354 353 353 353 354 354 354 354 353 353 353 352 349 337 339 359 357 357 356 355 355 355 355 359 344 335 335 333 333 336 336 337 335 332 328 337 348 349 347 342 341 341 341 342 341 339 338 341 344 341 341 337 338 336 334 334 333 332 336 338 338 331 327 328 325
349 351 353 352 353 353 351 351 351 352 355 337 321 321 320 320 332 349 352 354 354 353 353 353 356 359 361 366 365 354 354 354 343 335 334 347 354 356 358 358 358 359 360 363 365 360 338 332 331 332 332 333 333 331 328 330 333 345 345 342 342 344 341 340 337 335 338 340 340 343 335 335 337 335 331 330 329 333 336 336 336 334 332 328 324
350 351 353 352 352 353 353 352 350 350 351 341 317 320 319 318 332 351 353 353 353 353 353 352 352 353 354 364 370 362 357 352 337 333 332 343 351 352 354 355 355 356 359 361 362 360 355 352 351 350 346 342 342 341 342 334 336 347 346 345 344 344 341 340 337 333 330 335 339 342 332 332 331 331 331 327 323 329 335 334 334 334 335 334 334
Wind_Speed
5 4 4 4 4 4 4 3 1 1 0 1 0 2 1 2 4 4 4 4 3 5 5 5 5 4 5 4 4 3 4 6 6 6 5 4 4 7 11 10 9 9 9 9 9 9 9 8 8 8 8 7 7 7 6 6 6 5 5 5 4 3 3 1 0 1 2 2 4 5 6 6 6 6 6 6 6 6 6 7 7 8 8 8 9
5 5 5 4 4 4 4 3 3 2 1 2 3 3 4 4 5 3 3 4 6 6 7 6 6 6 6 5 4 4 4 6 6 5 4 4 4 4 10 9 9 8 8 7 8 8 8 8 8 8 8 7 7 7 6 6 6 5 4 4 4 3 1 1 2 3 3 3 4 5 6 5 5 6 6 6 6 6 6 7 7 8 8 8 8
5 5 4 4 4 4 5 4 4 3 4 4 2 2 2 3 3 2 1 1 2 3 6 8 7 6 7 6 6 4 4 5 5 5 5 4 4 3 4 9 8 8 7 7 7 7 8 8 8 7 7 7 6 6 6 6 5 5 4 4 3 3 2 3 3 4 4 4 4 5 5 5 5 5 5 5 5 5 6 6 7 7 6 6 7
6 5 5 5 4 4 5 4 3 3 4 3 4 4 4 3 1 1 2 3 4 5 0 7 8 7 6 7 7 6 5 5 6 6 5 4 4 3 2 4 8 7 7 7 7 7 7 7 7 8 7 7 7 7 7 6 6 6 5 4 4 3 3 3 3 4 4 4 4 4 4 5 4 4 4 4 4 4 5 5 5 4 4 5 6
4 5 4 3 4 4 4 4 4 4 3 3 2 2 2 1 1 3 3 2 4 3 3 2 7 5 5 7 7 6 7 5 6 6 6 5 4 4 4 3 3 7 8 7 7 7 8 8 7 8 7 7 7 7 7 7 7 6 5 5 3 3 4 4 4 4 3 4 3 3 3 4 3 3 2 3 3 3 3 3 4 3 3 4 4
4 4 4 4 3 4 4 3 3 3 3 2 4 3 3 2 1 2 3 2 3 3 3 3 5 6 6 5 5 4 7 7 7 6 6 6 5 5 5 4 4 3 3 8 7 8 8 9 9 9 9 8 8 8 7 7 7 7 6 5 5 6 5 4 3 3 3 3 2 2 3 2 2 1 2 2 2 2 2 3 3 3 3 4 3
3 4 4 5 4 4 4 3 4 3 3 3 4 3 2 2 2 2 3 4 4 3 1 2 4 6 5 7 7 5 4 9 6 7 7 6 6 6 5 5 4 4 4 3 7 9 9 9 10 9 10 10 10 10 9 9 8 7 7 6 6 6 5 4 4 3 3 3 2 2 2 1 1 1 2 2 1 1 2 2 2 2 2 2 2
4 4 5 4 5 4 3 3 3 4 4 3 3 3 2 3 2 2 2 3 3 3 2 1 1 6 5 5 6 5 3 8 9 7 8 7 7 6 6 5 5 5 6 4 4 6 11 11 10 10 10 10 11 10 10 9 8 8 8 6 6 6 5 4 4 4 3 3 4 2 2 2 2 2 2 2 0 0 1 1 2 1 1 2 2
4 4 3 3 4 4 3 3 3 4 3 3 4 2 0 1 2 3 3 1 2 3 4 4 3 1 3 3 3 3 3 4 7 10 8 8 8 7 7 7 7 9 5 6 5 5 8 11 11 11 11 11 11 11 11 10 10 9 7 7 6 6 6 6 5 5 5 4 4 3 4 4 3 3 2 2 2 2 2 2 2 2 1 2 2
4 3 3 4 5 4 3 3 4 4 3 3 2 1 0 1 1 2 2 1 0 1 2 3 4 2 4 4 4 5 1 3 5 6 8 8 7 8 8 8 7 7 6 6 6 5 5 10 12 12 13 12 11 11 11 10 10 9 8 8 8 7 7 6 7 6 6 6 5 5 5 5 4 4 4 3 3 4 3 3 4 3 3 3 4
4 4 4 4 4 4 4 4 4 3 3 2 2 2 1 3 3 2 0 1 1 1 2 2 5 6 4 4 4 4 3 2 1 2 5 8 9 8 8 7 7 8 7 7 6 5 6 5 6 6 7 13 13 13 12 11 10 10 10 9 9 8 8 8 8 8 8 7 7 6 6 6 6 5 5 4 4 4 4 5 5 5 4 4 4
4 4 4 4 4 4 4 4 4 3 3 3 2 1 1 3 3 1 1 2 1 2 2 2 1 5 3 4 4 3 2 1 3 3 3 6 9 8 7 7 6 7 7 7 6 6 6 6 6 6 5 8 14 13 13 12 11 11 11 10 10 9 9 9 9 9 8 8 8 7 7 7 6 6 6 6 6 6 5 6 6 5 5 5 5
5 4 5 4 4 4 4 3 3 3 3 3 2 1 2 2 1 0 0 1 2 1 2 1 3 2 4 3 3 3 2 1 3 3 1 2 3 8 7 7 6 7 6 6 7 7 7 7 7 6 6 6 8 12 13 12 12 12 12 12 11 11 10 10 10 10 9 9 9 8 7 7 7 7 7 7 7 7 7 7 7 6 7 7 6
6 4 4 5 5 4 4 4 4 3 3 2 3 1 2 1 2 1 1 1 0 1 1 1 1 2 3 0 0 1 2 3 2 3 4 3 3 6 7 7 8 8 7 7 7 7 7 7 6 6 6 6 6 6 7 8 9 12 13 13 13 12 12 11 11 10 10 10 10 9 9 9 9 9 9 8 8 8 8 8 8 8 8 8 8
6 5 5 5 5 5 5 4 5 4 3 3 3 3 2 2 2 2 0 1 1 1 1 1 1 1 2 3 1 2 1 3 3 4 6 5 4 5 5 6 6 8 8 8 6 7 6 6 7 7 6 7 6 5 6 6 8 13 13 12 13 13 13 13 12 12 11 11 10 9 9 9 10 10 9 9 9 9 9 9 9 9 9 8 8
7 6 5 5 6 5 4 4 4 5 5 4 4 3 2 1 1 1 1 0 1 0 1 2 1 2 2 1 3 4 0 2 3 4 4 5 6 3 6 7 7 6 5 8 8 7 6 7 9 8 7 7 6 6 6 6 11 14 15 14 13 12 14 14 14 13 12 12 11 10 10 11 11 11 10 10 10 10 10 10 10 10 10 10 10
7 6 6 6 5 5 5 5 5 5 5 5 5 5 3 3 3 2 2 1 1 0 1 0 1 1 2 1 1 1 2 3 1 4 1 1 4 3 8 8 8 8 6 6 7 7 7 6 7 7 8 7 6 6 6 6 7 7 10 13 14 12 13 14 14 14 13 13 12 11 11 11 12 12 11 11 12 12 11 11 11 11 11 11 11
7 7 7 6 6 6 5 5 6 5 6 6 5 4 4 4 4 4 2 1 3 2 1 2 1 1 2 3 2 2 1 1 2 2 3 1 1 9 9 8 7 7 5 7 9 7 7 6 6 6 5 5 7 7 7 7 7 7 6 8 14 12 13 13 15 15 14 13 13 12 12 12 13 12 12 12 12 12 12 12 12 12 12 12 12
8 7 7 7 7 5 5 5 5 5 5 5 5 5 5 5 4 3 3 1 2 1 2 0 3 2 2 2 2 3 3 2 2 1 1 1 1 1 1 6 7 6 5 6 7 6 6 6 6 6 5 5 5 6 7 8 9 9 11 11 13 14 14 14 14 15 15 15 14 14 13 13 12 13 13 12 13 13 13 13 13 13 13 13 12
7 6 6 7 7 6 6 5 5 5 6 6 6 5 5 4 5 4 3 3 3 4 2 1 1 2 2 1 0 2 3 2 3 3 3 1 2 3 1 7 4 4 5 6 6 6 6 5 6 6 6 6 6 6 6 7 7 8 8 13 14 15 15 15 15 15 16 15 15 14 14 14 14 14 14 15 14 14 13 13 14 14 14 14 14
6 8 5 7 6 6 6 5 5 5 6 5 5 6 6 5 4 5 4 4 3 2 2 1 1 1 1 1 2 2 1 1 1 3 1 1 1 1 2 2 4 5 4 4 6 6 6 8 7 8 6 6 7 7 7 7 7 7 8 13 15 15 15 15 15 16 16 16 15 15 15 15 15 15 15 16 16 15 14 15 15 15 15 15 15
5 7 6 7 6 6 5 5 5 5 7 6 5 5 5 5 6 6 4 3 3 5 4 4 2 2 1 1 2 1 3 1 2 2 1 1 1 2 3 4 1 2 2 7 9 5 7 8 7 7 7 6 7 7 6 6 7 7 9 14 15 16 16 16 16 16 16 16 15 15 15 16 16 16 16 16 16 17 16 15 16 16 16 16 16
5 6 7 7 6 6 5 5 4 3 6 5 4 7 6 6 7 5 5 4 3 3 2 2 2 1 0 1 2 2 2 1 0 1 1 0 1 2 3 1 2 0 2 2 6 7 7 7 7 7 7 7 7 7 7 6 7 9 13 14 15 15 15 15 15 16 16 15 15 15 16 17 17 17 17 17 17 17 17 16 16 17 17 17 16
6 5 7 6 7 6 5 6 5 4 4 4 3 8 7 6 6 6 5 4 3 3 2 2 3 2 0 1 2 2 2 3 4 4 3 3 2 2 2 3 2 2 2 2 1 6 7 6 6 6 8 8 7 7 7 7 7 13 12 14 15 15 15 15 16 16 16 16 16 16 16 17 17 17 17 17 17 18 18 18 17 18 18 17 17
6 6 6 7 6 6 7 6 6 5 4 4 3 3 5 5 5 6 5 5 5 4 3 3 3 4 3 2 3 3 3 5 3 3 3 5 3 0 2 1 2 2 2 1 2 2 6 7 6 7 6 8 7 7 7 7 6 10 13 10 17 15 16 16 16 16 16 17 16 16 16 16 16 15 15 16 16 16 17 18 18 18 18 18 18
8 8 7 7 6 7 7 6 5 6 5 5 4 2 4 5 6 6 5 5 5 4 4 3 3 3 4 3 3 3 3 3 3 4 4 3 2 4 3 1 0 1 2 1 2 1 4 5 8 7 7 7 8 8 7 8 7 11 14 10 11 15 16 16 16 16 16 16 16 16 16 15 15 16 17 17 17 17 17 17 18 19 19 19 18
8 7 8 7 8 8 7 7 5 6 5 5 5 3 3 4 4 4 5 5 6 5 4 4 4 4 4 5 5 4 5 3 4 6 5 6 5 3 3 1 2 2 2 2 2 2 4 2 4 7 6 7 7 7 8 7 8 12 12 9 6 11 14 15 15 15 15 15 15 15 15 16 17 17 18 17 17 16 17 18 18 18 19 19 18
6 6 8 8 8 9 8 8 6 6 6 6 5 4 3 4 2 1 3 4 5 6 5 5 5 4 5 3 3 4 4 2 1 1 3 4 4 3 5 4 2 1 3 2 2 2 2 2 1 2 4 5 5 6 7 7 6 9 11 7 7 7 12 15 15 14 14 14 14 15 16 17 18 19 19 18 18 18 19 20 19 20 20 19 19
7 5 6 6 8 8 9 8 8 6 6 6 6 5 4 4 4 3 3 3 4 6 5 5 4 4 3 4 4 4 5 2 2 1 2 5 5 4 5 4 5 3 1 1 2 1 3 1 1 2 2 4 4 4 4 6 7 8 6 6 7 6 9 13 14 14 14 15 15 16 17 18 18 19 19 20 20 19 19 21 20 20 20 20 20
8 7 7 7 6 9 9 9 8 7 7 6 6 6 6 6 5 5 4 4 3 3 4 5 5 3 4 3 4 4 4 3 4 2 4 3 5 3 4 5 6 4 3 1 4 2 3 3 1 1 3 4 4 5 4 5 7 9 6 6 7 7 10 12 13 14 14 15 16 17 17 17 18 18 19 19 20 20 21 21 21 21 21 20 20
9 8 8 8 7 8 9 9 8 8 7 7 7 6 6 7 6 6 5 5 4 4 3 4 4 3 3 4 4 4 4 4 3 1 2 2 3 3 2 2 4 4 4 2 1 4 2 1 2 1 2 4 5 4 4 4 7 8 7 7 7 9 11 8 11 12 13 13 14 15 16 17 17 18 18 18 19 19 20 20 21 21 21 21 21
8 9 9 9 9 8 8 9 9 8 8 8 8 8 6 7 6 6 6 6 5 5 4 4 4 4 4 4 3 4 3 3 3 1 3 3 4 4 3 3 4 4 5 4 4 7 2 2 4 6 6 4 4 4 6 6 6 10 7 8 9 9 5 5 7 11 12 14 15 15 16 16 17 17 17 18 18 19 19 19 20 20 21 20 20
9 7 8 10 10 10 9 8 9 9 9 8 8 8 8 7 6 6 6 7 6 6 5 5 4 5 5 5 5 4 3 2 3 3 2 4 3 4 4 4 4 4 5 4 4 6 6 3 4 4 4 3 3 3 5 6 6 6 6 6 6 5 4 4 5 9 12 13 13 14 14 15 15 15 16 17 17 18 18 19 19 19 20 20 19
11 11 8 9 9 11 10 9 8 10 9 9 8 8 8 8 7 6 6 7 7 7 5 6 5 4 4 5 6 5 4 5 3 3 4 3 3 4 4 5 6 6 5 5 6 5 8 4 5 5 5 3 5 3 4 5 6 5 7 6 3 4 4 6 6 7 12 13 13 14 14 14 15 15 16 16 16 16 17 17 18 18 18 19 18
10 11 11 9 10 10 10 10 9 8 9 10 8 8 9 9 9 8 7 6 8 7 7 7 7 5 4 4 5 5 4 5 5 5 3 4 4 5 6 5 5 6 6 6 5 6 7 7 5 5 3 3 4 6 5 5 6 6 7 7 6 3 3 5 6 6 10 14 14 13 12 13 13 14 14 14 13 14 15 16 16 17 18 18 16
10 10 12 11 9 11 11 11 11 9 9 10 10 10 10 10 10 9 8 7 7 8 8 7 7 6 6 5 5 5 5 5 5 6 6 5 5 3 4 5 6 6 5 5 6 6 5 6 4 4 4 4 5 5 5 6 7 7 7 7 5 5 5 5 6 6 7 11 11 11 11 12 13 12 12 12 12 12 13 14 15 15 16 17 16
12 11 11 11 11 11 12 12 12 12 11 11 11 11 10 10 10 10 9 8 7 8 8 8 7 7 6 6 7 5 4 6 5 6 6 6 6 6 5 4 6 6 6 6 6 6 5 6 5 4 4 3 4 5 4 6 8 7 5 5 6 6 5 6 5 6 6 8 9 10 10 11 11 11 11 11 11 12 12 13 14 15 15 16 16
13 12 12 11 12 12 11 12 12 13 12 11 12 12 11 10 10 10 10 9 9 8 8 8 8 7 7 7 7 6 6 6 6 6 6 7 6 6 6 6 5 4 5 5 4 4 5 6 6 7 4 6 5 6 5 5 8 8 6 4 3 3 3 5 4 3 2 2 3 4 5 8 11 13 12 12 12 13 13 13 14 14 15 15 15
14 13 13 13 11 12 12 11 12 12 12 11 10 11 11 10 10 10 10 10 9 8 8 9 8 8 8 8 7 7 7 7 7 6 6 6 6 6 7 7 6 5 5 5 5 5 5 5 5 6 7 5 5 8 7 5 7 5 6 6 3 2 1 1 3 2 2 3 4 7 8 10 11 9 10 12 12 13 14 14 14 14 14 14 14
15 14 13 14 12 12 13 12 12 10 11 11 10 10 11 11 10 11 11 11 10 9 7 9 9 9 9 8 8 8 8 8 7 7 7 7 5 6 7 6 6 6 6 6 5 5 6 5 6 7 6 6 5 6 6 3 5 5 4 4 6 0 0 2 2 3 2 1 5 6 4 8 8 8 9 8 9 12 13 12 13 13 13 13 12
14 15 13 14 13 13 13 13 12 11 10 10 10 11 11 11 10 11 11 11 11 10 9 8 8 9 9 9 8 8 7 10 12 10 9 8 6 7 6 6 6 7 6 6 6 6 6 6 7 5 5 7 7 7 9 7 6 8 4 1 1 2 2 5 3 3 2 1 3 7 6 5 7 6 5 5 6 6 8 11 9 11 9 10 11
14 14 13 13 14 14 14 13 12 11 10 9 12 17 15 11 11 9 9 10 10 10 10 9 8 8 9 8 9 13 14 14 14 14 14 13 12 9 8 7 7 7 7 7 7 7 7 7 8 7 8 9 8 7 8 9 5 2 1 1 2 3 4 6 2 0 0 1 2 7 8 4 5 6 5 6 6 5 6 6 5 7 12 14 14
15 13 13 13 14 14 14 13 13 12 11 11 17 16 17 17 12 9 9 10 9 9 9 10 10 10 9 9 7 10 13 15 14 17 16 16 16 15 14 12 10 9 7 8 7 6 7 7 7 6 7 9 9 8 8 9 6 3 1 2 0 3 3 4 6 5 1 2 1 3 8 4 3 6 6 6 6 5 5 5 10 15 15 17 17
13 13 14 13 12 14 13 14 14 13 12 14 18 18 18 18 15 11 8 8 9 9 9 10 10 9 9 9 9 8 7 8 10 11 15 17 18 18 17 15 14 13 12 9 8 6 6 7 7 8 7 8 9 6 8 6 6 2 1 2 0 3 5 4 2 3 3 1 1 2 8 3 3 4 5 5 5 4 5 9 15 14 16 15 15
13 14 14 14 11 12 14 14 14 13 12 16 18 19 19 19 19 15 9 8 9 10 10 10 9 9 8 8 8 8 9 14 10 9 10 12 15 18 18 17 15 14 13 13 10 8 6 6 7 8 8 6 7 9 7 5 1 3 1 2 1 2 2 4 4 2 6 2 2 3 5 5 2 2 3 6 5 4 5 9 14 13 14 17 17
14 14 14 15 12 10 12 14 13 12 13 15 19 19 19 20 19 16 11 11 8 8 10 10 9 9 9 9 9 8 7 8 8 8 8 10 10 10 10 9 8 12 14 14 15 13 8 7 7 10 10 5 10 11 10 5 5 6 3 4 2 2 3 5 3 4 6 3 3 1 3 5 2 2 3 5 5 5 6 10 12 16 20 17 15
14 15 15 14 13 11 10 13 12 12 12 17 19 20 20 21 20 17 12 9 8 7 8 9 10 10 9 9 9 10 9 7 6 7 8 9 9 9 9 9 10 10 10 10 10 9 8 8 9 11 12 9 11 12 11 5 4 4 3 2 3 3 3 2 2 3 6 5 2 3 2 4 2 3 4 5 3 6 4 5 14 20 15 12 14
12 12 12 13 13 13 11 11 13 13 12 19 20 21 21 21 21 13 11 10 9 8 8 8 9 10 10 10 9 10 10 9 12 13 10 8 7 8 9 9 8 8 9 11 13 12 11 9 9 11 11 12 14 12 4 2 2 4 4 3 2 1 1 3 5 3 5 4 2 2 1 2 2 3 3 5 4 4 4 6 13 13 12 11 15
12 12 13 13 12 13 13 10 11 12 11 16 21 22 21 22 16 11 11 10 10 10 9 8 9 9 10 11 11 10 10 10 13 15 14 11 7 8 9 9 8 8 10 9 12 16 17 17 16 15 14 16 13 4 6 6 6 5 5 2 3 2 1 4 3 2 5 2 3 3 1 3 4 3 3 3 4 0 6 7 5 9 9 11 13
13 13 12 12 12 13 14 14 12 10 11 13 22 21 22 21 18 13 11 11 11 11 10 8 6 6 7 14 13 11 11 11 14 15 15 11 8 8 8 8 8 9 10 8 7 9 16 18 17 16 13 11 7 9 8 9 10 7 6 6 4 4 5 4 4 3 4 2 3 3 4 2 4 3 2 2 2 2 6 5 6 5 5 8 12
11 10 11 11 11 11 13 14 16 15 10 10 19 22 23 22 19 12 12 11 11 11 11 10 9 7 7 7 12 11 11 12 14 15 16 12 9 9 8 8 9 10 11 7 9 9 6 4 6 6 7 11 8 7 7 11 11 8 5 5 4 5 6 4 4 1 2 1 4 3 4 3 4 4 3 2 1 1 4 6 7 5 5 7 7
Wind_Direction
144 143 139 126 127 130 131 139 134 133 140 290 227 165 109 110 279 270 251 244 222 160 173 161 151 165 159 164 187 185 151 131 135 140 142 151 150 159 155 154 154 151 149 144 139 133 131 129 127 129 131 129 130 133 137 135 143 146 149 146 143 153 152 144 238 294 321 341 349 352 4 4 360 6 10 6 16 12 17 18 16 18 19 23 25
137 136 134 137 138 143 145 143 156 185 163 215 213 164 167 191 225 245 239 197 194 188 164 165 165 173 168 166 183 183 154 138 141 141 143 145 157 167 159 160 160 156 153 150 144 138 131 132 133 135 139 142 143 144 146 154 153 153 157 163 166 166 187 183 258 284 306 332 349 353 352 357 359 6 6 3 15 15 17 18 15 22 21 26 32
130 142 138 145 161 157 155 144 162 193 190 208 202 178 159 195 213 226 210 176 205 186 146 158 167 176 174 164 174 169 150 144 144 142 149 151 151 164 170 168 169 167 161 159 152 147 143 140 144 147 149 154 157 158 162 165 165 169 170 182 187 195 202 242 261 288 319 344 344 353 351 356 3 13 3 4 23 16 19 19 19 22 26 35 39
139 151 144 155 173 144 146 156 186 195 175 178 162 175 185 203 228 326 8 348 315 313 328 126 152 175 163 149 142 156 164 156 148 152 155 152 154 166 172 182 180 177 177 170 166 161 154 154 155 160 164 168 172 175 176 179 182 188 188 202 209 217 233 245 271 306 322 327 339 345 357 347 0 11 12 15 26 20 23 25 22 25 30 46 51
157 148 150 150 133 130 135 148 156 162 147 128 125 80 62 22 23 28 353 2 3 333 360 135 147 162 144 139 155 150 163 158 156 159 160 160 162 166 176 184 191 190 189 181 177 177 172 169 174 173 176 179 184 194 186 191 197 198 209 214 231 245 253 263 278 304 316 304 327 346 339 337 353 18 4 24 26 26 30 30 20 27 36 54 52
141 135 133 128 123 125 127 121 126 132 105 97 83 76 45 47 69 42 4 15 330 319 2 49 76 123 145 124 107 155 162 165 167 162 160 160 168 171 179 177 186 187 191 194 188 187 186 184 188 188 189 191 193 200 203 203 206 209 213 222 232 246 255 268 275 282 292 301 316 307 309 331 348 10 347 11 16 27 29 28 11 15 45 51 58
122 128 132 126 117 111 107 126 121 115 96 79 88 67 49 30 46 62 29 18 349 309 10 73 82 92 136 130 136 198 168 168 165 158 159 167 170 178 178 181 180 181 184 185 198 198 198 196 194 196 200 201 203 207 210 215 218 219 224 230 231 246 248 251 266 259 266 276 283 276 276 299 351 294 324 341 22 28 25 359 357 23 59 50 81
119 115 116 116 124 122 131 117 106 105 99 83 78 80 75 60 18 118 51 14 342 338 348 25 141 119 135 134 162 173 162 141 159 164 164 165 176 178 177 176 181 186 187 181 196 203 203 203 199 201 205 208 209 211 215 219 221 222 225 226 229 236 236 238 240 251 253 246 251 254 250 246 252 282 297 305 215 197 266 301 284 231 113 111 118
125 120 120 123 118 118 127 113 103 97 88 82 85 104 59 72 21 59 100 52 1 342 338 6 324 176 127 124 126 107 133 157 148 165 165 169 177 176 176 178 185 191 183 186 193 203 202 205 204 204 209 211 212 211 214 216 218 219 219 227 229 232 229 235 235 238 246 242 243 237 237 240 254 262 263 248 244 227 251 266 269 215 204 178 157
134 127 116 114 119 126 116 97 95 90 77 81 121 138 119 88 84 35 76 101 293 339 326 339 311 202 135 142 125 99 86 128 166 152 155 172 173 175 183 178 185 181 180 187 192 192 196 202 203 206 209 212 213 214 216 215 219 218 220 223 224 230 230 230 237 233 238 240 238 234 236 244 250 252 241 244 239 240 250 243 241 213 201 190 177
142 135 124 117 120 123 119 111 108 111 118 109 70 79 49 83 72 64 35 186 246 260 229 260 316 93 120 122 111 115 125 163 103 160 169 164 175 172 180 181 184 178 177 181 186 184 188 195 200 204 211 211 212 214 217 216 218 222 222 224 228 230 230 232 233 235 232 235 233 236 244 248 252 247 239 230 232 234 242 246 225 214 222 209 201
144 142 136 130 119 129 123 123 129 134 132 118 96 54 93 85 70 87 3 346 286 258 292 45 12 69 72 93 120 129 177 207 255 201 184 162 163 172 179 185 180 177 172 173 179 179 185 192 200 204 208 215 215 215 215 214 217 221 227 226 227 229 230 232 232 234 233 235 238 237 240 247 240 236 240 237 231 236 238 239 234 224 223 212 216
153 148 144 127 115 118 123 135 146 145 154 151 153 172 104 108 127 116 47 24 348 345 318 90 85 43 29 82 122 150 195 227 234 241 199 232 158 146 168 179 181 171 178 172 178 180 187 190 193 198 207 209 217 219 217 218 218 220 222 225 227 226 226 227 231 234 232 234 240 241 230 228 233 233 238 235 237 235 235 238 227 225 228 225 220
158 152 139 135 135 138 148 153 153 164 156 150 154 139 95 117 127 42 276 134 241 204 296 80 35 136 115 66 7 340 241 250 273 260 202 194 183 136 153 160 164 176 173 183 179 186 191 187 189 193 202 205 208 206 215 218 220 221 223 223 226 226 226 230 234 234 233 233 237 238 235 227 232 238 242 237 236 238 238 239 237 235 234 229 228
151 152 147 143 150 154 167 160 160 159 143 135 121 115 158 184 163 156 270 248 215 201 126 115 165 174 137 97 202 99 315 347 305 244 190 197 204 170 164 146 170 165 167 175 176 196 193 186 188 194 194 202 201 202 206 212 217 221 222 224 226 227 227 229 231 234 233 232 235 239 231 229 232 238 239 236 237 239 238 238 237 235 238 237 237
155 156 156 155 155 167 171 169 171 161 158 149 148 167 189 144 247 243 143 47 289 335 144 152 136 107 128 160 199 127 58 290 252 281 230 180 209 176 153 162 177 180 155 159 178 196 192 184 188 188 192 197 196 194 202 212 221 221 222 224 227 232 233 230 231 233 233 234 235 235 232 231 233 233 238 236 236 236 236 235 237 238 240 239 238
164 163 164 165 166 172 176 177 168 163 156 157 165 182 191 182 193 205 207 165 136 102 326 19 221 167 135 87 32 65 218 237 158 288 28 296 213 162 163 162 176 185 173 179 176 186 178 178 175 178 189 191 195 195 199 211 216 220 223 223 223 226 233 234 233 234 236 239 239 237 236 232 232 233 237 239 237 236 236 236 236 237 237 238 239
170 172 168 172 169 176 172 162 164 166 164 168 172 175 179 190 206 187 219 253 140 89 337 314 341 199 166 173 161 170 198 271 100 265 309 282 184 163 164 172 178 180 170 173 173 181 179 177 177 185 187 186 184 184 199 204 208 210 206 217 222 218 227 231 236 236 237 238 240 239 239 235 233 237 239 240 240 238 237 238 238 238 239 241 241
175 176 168 173 167 169 167 174 163 167 162 159 170 183 178 190 188 175 213 165 113 119 154 295 347 316 263 242 215 226 170 113 174 104 46 312 335 245 224 189 178 173 182 176 185 171 185 178 184 187 190 192 203 189 189 200 202 201 204 209 215 216 220 226 230 234 236 237 238 240 241 241 236 238 242 242 244 242 239 239 239 239 241 242 242
173 178 166 170 161 165 175 175 170 169 165 174 181 189 182 188 168 177 173 171 166 146 149 146 129 277 282 258 4 261 73 102 136 146 165 125 313 303 197 183 179 197 185 190 190 188 179 188 187 192 195 205 200 209 194 195 197 203 210 210 212 214 217 221 225 229 234 237 238 240 242 244 242 238 241 247 245 244 241 239 238 239 240 241 241
169 177 164 162 165 167 172 177 180 177 178 184 192 176 181 165 151 155 181 194 158 153 121 226 168 226 322 8 33 15 355 352 113 106 120 102 291 284 294 47 171 218 215 197 201 192 178 192 196 190 199 204 205 209 209 193 197 203 213 211 211 214 214 218 221 225 230 236 240 240 241 244 245 245 243 245 246 243 241 240 239 239 240 240 241
171 173 158 162 163 169 172 183 186 181 186 195 184 169 176 163 165 170 179 166 170 156 171 207 189 245 149 154 71 358 23 17 8 40 31 115 178 307 306 284 184 250 189 165 201 172 188 198 193 195 199 205 208 208 212 201 197 200 213 209 210 212 214 217 221 224 228 233 237 241 243 244 245 246 247 246 245 245 243 241 239 239 239 241 242
171 171 165 165 163 166 168 183 203 194 189 199 160 174 178 175 171 161 166 170 167 187 189 181 182 177 187 136 153 162 183 129 221 115 162 35 34 333 313 279 192 214 298 207 157 178 197 202 184 189 198 208 206 207 215 210 200 205 207 210 212 213 215 218 221 224 227 230 235 237 241 244 245 245 246 247 246 246 246 243 241 239 239 241 242
182 160 177 167 164 167 173 179 198 208 204 203 163 170 182 178 162 159 168 173 181 185 183 205 187 203 260 179 225 230 246 192 207 164 140 173 137 233 274 318 342 237 278 306 280 164 208 206 216 198 197 200 206 208 214 214 208 209 209 216 216 217 219 220 223 225 228 229 231 234 238 241 244 246 246 247 248 247 247 246 243 242 240 240 242
180 179 179 177 166 169 180 182 192 197 197 181 221 153 163 176 165 167 166 171 179 183 183 213 164 173 212 203 210 238 238 232 174 185 200 153 147 171 275 173 214 292 290 204 227 238 185 216 213 216 201 198 203 209 215 215 216 215 210 219 218 219 220 222 225 226 228 231 232 234 237 242 246 248 250 250 250 249 249 249 249 247 246 245 243
179 182 186 179 174 178 182 187 184 194 178 183 200 197 136 136 171 169 182 184 167 170 188 211 201 200 183 209 241 247 265 264 226 182 186 144 156 193 232 325 110 325 297 305 267 173 281 222 218 206 203 197 201 204 212 216 221 225 220 219 221 220 222 224 227 229 232 235 238 240 243 245 248 251 253 254 254 253 252 250 250 250 250 248 245
179 184 186 181 179 179 182 189 180 186 174 168 176 180 133 124 138 180 181 180 177 176 186 206 214 213 211 196 207 229 245 236 254 220 185 180 170 166 148 234 333 13 350 298 309 239 241 305 216 218 201 202 200 199 206 213 219 221 226 228 233 229 229 229 231 233 237 241 243 245 247 249 251 252 253 253 254 253 253 253 252 250 249 249 249
183 177 187 186 181 181 181 186 186 179 178 165 162 160 151 147 158 154 155 173 183 179 198 205 214 201 206 206 205 244 246 253 260 36 163 174 144 155 130 120 130 302 333 330 333 293 220 242 310 238 239 206 199 193 205 212 223 229 223 224 229 234 228 231 235 237 240 244 247 249 250 250 250 251 253 253 252 253 253 254 252 251 250 250 249
189 192 192 180 182 180 180 182 185 180 178 173 166 169 168 163 176 184 209 215 174 191 200 197 218 210 203 192 197 223 258 263 312 141 148 136 150 140 136 144 150 144 215 294 280 258 304 350 265 282 205 251 219 213 197 216 230 234 231 223 229 230 231 229 234 239 241 244 246 249 250 251 252 254 256 257 257 254 253 256 255 254 252 252 251
189 197 199 192 175 181 178 181 184 180 179 177 173 174 174 179 179 189 199 207 208 203 194 187 218 214 206 214 199 216 236 253 244 251 149 153 126 132 136 146 141 150 176 193 271 240 268 306 325 326 334 309 283 271 245 247 251 245 240 237 233 235 233 229 230 235 240 243 246 249 252 255 256 258 259 260 259 259 258 258 258 257 255 254 253
190 194 194 200 180 180 180 181 180 183 180 178 178 180 176 180 184 188 197 201 213 209 208 185 216 211 221 216 212 212 214 226 243 267 189 143 151 144 168 138 152 148 157 150 258 287 200 271 293 321 328 271 263 279 288 267 261 255 253 251 248 243 241 243 239 240 245 250 253 254 255 257 259 259 260 261 262 262 262 262 262 262 261 259 257
189 190 193 194 191 177 184 182 183 184 181 182 180 185 182 184 184 186 194 193 206 204 210 197 205 210 231 225 213 206 205 195 211 207 173 208 173 163 172 160 174 166 156 158 194 263 265 239 272 288 281 274 275 262 265 267 260 254 251 249 251 255 252 245 246 239 240 243 247 250 254 257 260 263 264 265 265 266 266 266 266 265 265 264 263
194 187 194 195 191 188 181 183 184 186 186 184 184 181 187 189 192 188 189 190 196 208 202 223 217 207 210 216 230 222 191 170 204 239 198 192 207 185 189 179 189 185 160 180 208 260 293 257 264 274 283 289 293 226 253 268 277 275 262 258 264 268 258 245 244 245 245 246 247 251 255 259 263 265 265 266 267 269 270 270 271 270 269 268 267
193 201 190 194 191 190 188 185 181 185 188 188 184 181 187 189 194 194 197 194 198 203 203 211 225 226 199 208 217 214 202 194 197 211 234 222 200 207 207 190 194 202 196 177 216 222 260 301 299 286 286 290 292 281 281 291 290 292 293 284 261 237 245 244 249 250 245 247 250 255 262 266 266 266 266 267 270 273 276 278 278 278 276 274 271
193 196 197 190 189 189 191 190 185 182 187 190 188 185 190 189 192 198 201 191 195 200 203 209 213 219 223 209 215 208 191 192 200 211 211 231 221 206 223 214 212 214 203 195 191 225 245 262 242 262 258 276 255 281 285 275 275 276 287 290 285 265 225 223 234 245 243 245 250 257 260 261 263 265 271 277 280 281 281 281 282 283 283 283 281
194 195 195 195 184 187 190 189 191 191 187 190 193 193 191 190 191 195 199 199 193 199 202 205 207 209 217 221 228 210 198 190 202 207 217 222 236 215 208 227 220 226 216 198 204 210 232 255 277 249 266 270 273 264 270 274 278 283 273 282 283 276 268 252 241 247 248 246 254 260 267 272 276 279 281 282 284 286 289 290 289 288 287 288 287
198 195 195 195 190 186 190 189 190 194 192 192 193 196 193 191 191 192 195 200 202 198 202 203 204 203 209 215 222 214 201 202 212 207 206 211 223 236 246 220 210 223 227 215 208 201 220 241 266 260 254 261 258 269 254 274 283 273 274 267 273 271 271 260 251 249 251 263 269 274 279 284 289 294 296 298 300 302 299 295 292 291 290 290 291
198 197 195 194 194 192 190 190 190 193 194 193 194 195 193 190 191 192 195 199 203 203 200 201 204 203 210 214 214 212 208 204 216 214 204 204 205 212 227 245 239 230 232 240 232 219 209 232 245 282 280 268 287 267 259 256 269 285 283 271 282 280 257 280 276 281 308 311 306 305 316 307 302 308 313 316 315 309 304 298 292 289 287 286 286
199 198 197 194 194 193 194 192 193 193 195 195 194 194 193 190 191 192 195 200 203 202 207 204 204 203 208 213 215 208 210 212 215 214 209 209 205 212 210 216 221 224 234 245 249 253 245 249 255 248 266 264 246 281 273 242 258 257 280 300 298 315 324 264 301 328 326 310 300 303 306 298 299 305 308 308 304 298 293 290 289 287 284 282 282
202 201 197 195 192 193 195 196 196 192 192 195 194 195 196 193 189 194 194 196 202 205 204 207 207 208 210 213 215 213 212 212 210 215 208 213 207 211 212 203 210 214 225 230 238 241 251 254 248 259 257 269 271 254 281 305 301 297 268 265 284 283 321 305 258 278 295 352 308 307 311 303 307 312 308 299 291 286 285 287 288 285 284 284 283
203 203 199 194 191 193 195 196 197 195 193 195 194 194 196 198 193 193 194 195 198 203 207 206 206 207 211 215 219 219 213 215 212 210 209 207 201 211 219 206 210 206 216 221 221 230 241 247 265 260 264 275 269 281 287 277 256 263 268 230 230 162 248 283 299 274 255 305 311 304 313 311 309 312 305 307 295 291 293 293 292 293 299 320 322
201 201 202 195 193 192 192 194 195 196 197 198 198 195 194 196 198 197 195 197 197 198 202 208 210 209 210 212 217 218 220 220 218 218 218 215 211 206 206 202 210 211 213 215 218 220 227 238 250 255 265 265 270 262 266 269 262 259 326 53 6 292 316 316 313 277 214 103 338 308 305 310 303 306 314 311 309 312 305 309 304 349 5 8 11
198 199 201 199 195 193 192 191 193 196 198 200 196 193 196 197 196 199 195 200 199 197 197 200 208 211 216 217 221 222 220 223 223 221 222 222 224 222 217 208 201 200 210 214 218 206 212 227 235 241 246 261 263 260 259 273 277 260 164 147 270 313 332 348 314 308 316 100 293 269 299 308 312 306 308 305 299 314 305 308 348 18 21 22 17
196 195 199 203 197 192 194 192 193 195 198 198 192 192 194 196 196 198 197 196 201 201 198 201 206 208 211 215 219 222 225 221 222 223 224 225 224 226 227 226 218 208 201 198 208 209 207 222 235 238 241 247 262 259 261 265 275 289 133 132 198 303 310 313 267 283 253 205 236 268 285 289 275 276 289 293 303 306 331 330 20 29 27 18 23
192 195 198 199 199 194 192 193 194 194 197 194 188 190 193 195 198 199 202 198 197 203 203 204 204 206 208 211 216 220 227 229 215 210 214 227 232 231 229 230 232 227 226 226 216 205 184 197 222 243 233 246 265 263 253 257 201 295 310 323 258 211 204 245 257 266 295 293 342 265 280 284 270 256 306 303 316 324 333 6 33 32 20 28 31
192 195 196 198 198 193 192 192 194 194 197 190 186 189 192 196 199 198 207 205 202 201 204 206 206 206 207 208 212 221 222 227 223 207 205 215 221 229 235 235 234 242 242 237 238 238 219 208 207 235 249 222 249 259 264 264 278 275 312 287 221 207 217 242 248 253 271 269 229 214 287 290 258 308 320 303 331 336 332 32 39 22 23 28 23
192 194 196 197 198 195 190 191 192 195 198 185 184 188 192 195 198 196 207 206 207 207 206 206 208 209 208 209 214 221 223 226 222 210 209 211 213 220 223 226 228 232 233 239 236 232 223 211 217 232 246 241 246 254 261 264 254 259 226 201 180 201 232 276 295 268 285 272 188 143 236 282 322 12 331 318 342 327 360 35 32 23 17 28 18
195 194 196 196 196 198 191 187 193 196 196 180 185 187 192 196 193 194 202 204 207 210 211 208 208 210 210 211 215 219 223 225 229 218 210 211 215 218 220 228 232 233 235 234 233 234 232 224 214 223 231 233 234 247 247 189 120 121 107 91 89 102 336 322 313 304 276 302 350 350 277 302 350 44 326 301 313 325 10 34 28 9 18 24 14
192 193 195 195 194 196 197 188 189 197 198 186 186 189 192 194 184 195 198 203 210 213 215 210 208 209 211 213 214 219 220 223 223 218 218 203 213 218 222 228 230 232 241 241 234 237 240 239 235 230 229 230 240 212 146 161 163 149 109 107 245 188 218 278 271 270 273 312 336 6 304 330 343 23 300 276 276 7 51 40 14 2 21 18 8
197 195 192 195 194 196 197 199 191 187 198 188 189 190 191 187 182 191 195 199 210 215 222 216 205 205 211 217 217 218 217 221 215 210 213 204 216 216 217 223 228 234 244 239 242 239 238 241 242 241 242 248 221 171 161 168 168 159 147 209 217 160 228 220 239 229 281 34 353 332 25 331 326 336 323 282 333 42 55 44 6 354 14 8 13
201 193 190 193 195 197 198 200 200 197 197 186 192 191 190 185 186 192 191 198 205 214 216 222 220 223 226 225 225 221 220 221 209 206 207 200 216 220 219 220 230 235 237 224 232 247 249 241 240 233 238 230 216 190 190 184 181 191 193 210 178 179 221 211 205 265 352 1 343 7 25 307 353 318 348 16 51 329 45 26 351 350 2 5 25